GFSNIL_925_spd_159.txt.gz
Wind_Speed
10 8 6 3 3 4 5 9 13 18 21 24 29 28 27 29 30 35 31 34 31 21
10 10 8 5 3 3 6 10 11 14 18 17 25 27 30 31 32 32 36 31 35 25
7 7 4 2 1 2 6 9 11 14 15 16 18 22 27 27 31 30 31 33 32 21
7 6 5 4 4 4 2 6 11 12 13 14 17 19 21 24 30 28 27 28 30 22
6 6 6 6 6 5 3 1 5 9 14 15 13 18 23 26 30 30 29 28 26 23
7 8 8 7 6 9 5 2 3 7 13 18 18 20 23 26 28 29 28 25 21 19
8 9 9 7 7 9 7 8 10 14 18 20 21 21 21 25 27 26 22 18 17 17
10 11 10 10 11 11 12 13 14 18 21 24 24 23 24 21 18 18 18 18 17 14
12 12 13 14 15 14 15 19 21 21 21 19 17 15 16 19 21 23 24 24 21 18
14 15 17 17 17 18 17 18 23 26 26 25 21 19 18 18 23 24 23 21 19 19
16 17 19 22 21 20 22 23 24 25 24 23 20 20 22 23 24 24 22 21 21 23
18 20 21 22 23 24 27 27 27 26 27 27 23 22 24 28 29 27 25 23 20 18
20 22 22 22 22 23 25 26 25 24 22 24 24 23 25 27 29 27 24 19 16 14
21 21 20 22 23 23 24 25 25 26 23 23 22 21 20 20 24 24 20 18 15 12

GFSNIL_925_spd_162.txt.gz
Wind_Speed
6 6 6 6 8 7 7 9 15 17 16 15 18 20 18 23 24 26 29 30 29 25
6 5 5 5 5 5 6 7 9 13 17 17 17 19 17 20 22 24 29 31 33 23
5 5 4 3 2 3 4 6 8 10 13 17 18 21 23 26 23 27 28 29 32 33
4 4 3 3 2 3 3 7 12 11 13 15 16 16 23 23 25 26 27 27 34 35
6 4 4 4 2 1 2 4 7 13 11 14 15 15 17 20 23 24 25 26 27 26
5 5 5 4 3 3 1 1 3 5 11 14 15 16 19 20 22 22 25 27 29 27
7 6 6 4 5 5 7 6 5 6 11 16 15 15 17 21 23 25 26 26 24 24
9 7 7 7 7 9 10 9 9 11 14 15 15 16 21 25 26 27 25 22 20 18
10 9 9 9 11 13 14 14 15 18 18 17 17 21 24 26 26 23 23 23 22 20
12 12 11 11 14 16 20 21 22 23 22 21 18 19 21 23 26 27 27 25 22 21
14 14 13 14 16 17 21 25 25 25 26 26 22 20 20 25 26 26 22 22 23 21
16 16 16 17 17 20 23 23 23 21 21 25 23 24 28 30 30 27 22 18 16 14
17 19 20 21 18 18 20 20 19 20 19 20 21 22 23 22 22 22 19 16 15 14
20 20 20 20 17 18 17 18 20 21 19 19 18 18 20 19 18 18 17 15 13 12

GFSNIL_925_spd_165.txt.gz
Wind_Speed
5 6 6 7 6 7 8 8 9 11 12 13 13 15 15 14 17 21 25 26 28 24
5 5 5 4 4 4 4 4 7 10 12 15 16 16 15 20 20 22 26 26 28 27
4 5 5 4 2 2 3 4 6 7 11 15 14 13 14 16 19 23 24 23 25 25
4 3 3 2 1 1 2 3 6 7 10 11 13 15 15 15 16 23 20 23 27 28
3 3 3 3 3 3 2 4 6 9 10 11 12 10 11 15 17 20 21 23 25 27
5 4 4 4 3 4 3 4 4 6 11 11 10 12 8 11 13 15 17 18 22 23
6 5 6 4 4 5 4 3 3 2 5 10 7 9 11 11 13 13 13 15 16 21
7 7 7 5 6 6 6 8 10 10 10 11 9 11 14 15 17 19 20 21 20 17
8 8 9 9 9 10 11 13 15 15 15 16 15 14 17 20 23 22 20 22 21 18
11 10 11 12 13 16 17 17 19 21 21 21 19 18 21 23 23 24 26 24 22 21
12 13 13 14 16 19 21 22 22 22 23 24 21 19 21 23 26 26 23 22 22 22
14 14 16 18 20 22 26 25 25 25 26 26 23 23 28 30 31 27 22 19 17 16
17 16 20 22 22 24 26 24 23 24 26 25 24 23 25 26 22 22 20 17 17 15
18 20 23 23 23 23 21 23 23 23 22 20 19 18 17 17 18 18 18 16 15 13

GFSNIL_925_spd_168.txt.gz
Wind_Speed
10 9 7 4 5 3 7 7 7 10 12 11 10 11 13 14 14 16 20 23 26 25
10 10 7 5 5 5 5 5 7 9 13 12 14 12 12 15 18 18 17 21 25 25
11 10 7 6 3 3 5 6 3 5 9 11 13 13 13 16 18 15 18 22 24 22
13 12 8 7 5 4 3 2 3 6 7 7 10 12 9 10 14 17 19 19 18 23
9 9 8 7 5 3 2 2 5 8 9 10 8 7 10 11 13 14 18 19 22 25
9 8 7 6 5 5 4 2 3 4 8 8 7 8 7 9 10 10 11 15 18 20
7 8 6 6 7 7 7 5 3 2 3 7 9 10 10 7 9 7 5 4 6 13
10 9 7 8 10 9 9 9 9 10 11 11 12 12 12 12 15 16 14 13 8 12
10 11 8 11 12 13 13 15 17 18 17 18 18 17 20 22 22 23 22 26 24 23
12 12 11 14 15 17 19 20 22 23 22 22 20 19 22 24 24 25 25 24 23 23
15 16 15 17 18 20 22 24 24 25 25 25 22 21 23 26 28 27 25 26 26 24
17 18 19 19 21 21 24 25 25 25 25 26 23 25 30 33 33 28 25 21 20 22
17 21 23 23 25 24 26 28 29 28 28 27 28 28 28 25 28 27 25 21 19 17
20 23 25 28 27 25 26 29 28 25 26 24 23 20 19 20 23 24 22 20 18 16

GFSNIL_925_spd_171.txt.gz
Wind_Speed
10 10 11 13 12 9 7 8 7 9 10 12 10 9 10 14 18 17 16 15 20 21
11 11 11 9 9 7 7 7 7 9 11 10 9 9 11 14 16 15 14 14 15 20
12 10 11 10 9 8 10 10 8 8 10 11 12 10 12 14 15 15 15 14 15 19
16 14 13 12 9 6 5 4 6 8 8 9 11 11 11 13 13 15 14 13 16 18
13 9 10 9 7 5 4 5 6 8 10 9 9 11 12 11 13 13 12 13 15 19
12 11 9 7 6 4 3 4 5 5 8 9 10 10 8 10 8 8 10 12 16 17
12 10 9 8 7 5 5 6 5 5 5 10 10 11 12 11 11 9 6 3 3 7
13 11 9 9 9 7 9 9 8 8 10 11 12 14 15 15 14 15 17 14 11 10
14 12 12 12 11 13 14 13 13 15 17 17 17 17 18 22 25 24 25 26 25 25
13 13 14 14 15 18 19 20 21 23 24 24 23 25 28 28 28 28 26 25 25 26
15 15 16 17 19 23 22 24 25 26 27 27 25 26 27 29 29 29 27 26 26 25
17 18 19 20 20 24 25 25 26 27 27 27 25 29 30 32 32 31 28 26 23 21
19 20 22 21 22 24 26 26 27 28 28 29 29 25 28 28 30 30 27 24 23 18
21 22 24 24 26 28 29 29 26 26 25 25 23 22 22 23 25 27 26 23 22 19

GFSNIL_925_spd_174.txt.gz
Wind_Speed
15 14 16 19 19 17 16 15 14 11 10 12 10 11 10 11 14 13 14 15 15 19
17 17 18 17 15 12 9 10 9 10 12 10 11 8 7 10 12 13 14 14 14 14
16 16 17 16 14 11 10 9 9 10 12 11 9 9 8 9 10 13 13 12 13 12
16 19 18 15 12 10 10 9 9 7 9 11 11 11 11 12 13 15 14 14 14 12
19 18 16 14 11 9 7 6 8 11 11 11 11 12 12 12 14 17 17 13 11 12
17 15 12 10 8 6 6 7 8 9 13 13 11 10 11 10 8 9 8 7 9 11
15 13 11 9 8 6 5 5 6 9 10 12 12 11 8 13 12 9 6 5 4 5
15 13 12 11 9 8 6 6 7 8 9 11 11 12 17 17 14 12 12 10 10 6
17 15 14 13 12 11 10 11 11 10 10 14 13 18 18 20 21 21 23 23 21 22
17 17 15 15 16 15 14 16 17 17 17 19 20 20 21 26 27 27 26 26 25 25
17 18 18 19 19 19 20 22 24 24 24 26 23 26 28 29 28 27 24 23 24 23
19 20 21 23 22 22 25 27 26 25 27 27 24 25 27 30 30 29 27 24 22 21
20 22 24 25 26 24 27 28 27 26 26 25 24 24 26 28 30 31 26 23 21 19
22 23 25 26 26 27 28 30 28 26 22 24 22 21 22 23 26 29 27 24 21 19